Vertical_Velocity
-1 -1 -1 0 1 -0 0 0 0 -3 0 -1 -2 -0 1 -2 -2 2 -2 3 -2 -0 3 2 1 2 1 1 3 2 4 -6 -5 1 -3 -3 -1 1 -0 1 1 -1 1 1 2
-1 -4 -3 -1 -2 -3 -2 0 2 -1 -5 1 0 -2 -1 1 -3 -0 1 3 -2 1 2 3 1 2 1 -1 1 1 -3 -2 1 3 0 1 -2 4 0 -0 -3 -1 0 3 -0
3 3 1 -2 -3 -2 -3 -2 -1 2 -1 -2 -1 -0 -1 -2 0 -3 -2 1 2 -0 0 3 2 1 2 3 -4 -1 -8 6 2 1 2 1 -2 -1 -0 -5 -5 8 3 2 -0
-3 0 3 3 -1 -1 -3 -3 -3 2 -1 1 -1 -1 -0 1 -4 2 -3 -1 -1 3 2 4 0 1 -0 -0 1 -2 1 2 4 1 1 2 -0 -3 -1 -1 2 2 1 -4 1
-1 -2 -3 2 2 3 -1 -2 -2 -2 -1 -2 0 -1 0 -2 7 -2 1 -1 -0 1 3 -0 3 3 2 -0 4 -3 1 0 2 2 1 0 -1 -1 1 -3 0 -0 1 0 -2
-2 -0 -1 -3 -0 2 2 1 -1 -1 0 0 2 -2 0 -6 -2 2 0 2 1 -1 0 1 -1 7 6 0 -0 -1 3 1 -1 1 1 -1 1 -3 2 1 -2 -3 0 0 1
3 7 -3 -3 -2 1 3 2 -0 1 -1 -1 2 1 -3 14 5 -2 6 -1 0 2 -1 1 -0 3 2 4 0 0 3 2 -2 1 -2 1 -9 -17 4 -1 1 2 -1 0 1
-3 -5 -3 1 -1 -0 1 4 4 0 -0 -0 2 -1 -20 8 -1 -1 5 4 -1 0 3 1 -0 2 3 2 1 -1 5 4 -1 1 -2 4 -11 1 -4 -0 1 -2 1 -1 1
1 -2 -3 -2 -3 -1 -2 0 6 4 2 2 0 1 -15 -5 1 6 2 4 4 0 3 2 5 -2 6 1 3 2 -1 -3 5 0 1 -1 2 1 -0 1 -1 -0 1 1 1
-1 2 1 -1 1 1 -0 -1 7 5 0 3 6 -0 -5 0 -0 4 5 5 2 6 2 7 -2 -0 3 3 -10 -9 -1 -1 -3 -6 -1 -2 -1 2 1 -0 2 1 -1 -0 1
0 1 -2 0 -1 4 1 -1 -1 -1 4 -11 5 6 3 2 8 9 4 6 2 6 -5 5 1 -18 -9 5 4 1 1 0 -1 2 -0 0 1 6 2 -0 -0 -3 -1 -0 -1
0 1 6 5 3 9 5 10 -11 3 -5 4 7 -0 1 -1 1 3 3 -0 -2 -1 3 5 -6 -4 7 3 2 1 2 -1 0 0 1 3 -6 -1 -3 -3 -3 1 -1 0 -0
-1 -1 1 -0 1 1 14 -16 40 4 4 -22 -2 -4 -2 15 6 3 4 7 2 2 1 0 -6 9 0 2 2 2 -1 1 -1 0 1 -1 -16 -8 2 -2 -2 -4 -1 -2 2
1 -0 -1 2 -3 -2 -7 6 -3 26 8 -15 -23 -43 -19 6 -34 13 5 8 1 -2 6 7 7 8 -1 3 4 3 -5 1 -0 0 -1 0 -11 -6 -0 1 -7 -1 -5 1 0
1 -0 0 11 -2 -6 4 4 37 31 8 -1 -10 12 1 -11 -8 -19 2 -1 -4 -3 -3 -12 -5 -2 -2 -12 8 -7 7 4 3 2 4 -1 1 -13 -3 -5 -5 -2 0 -1 3
0 2 3 5 -3 6 4 6 29 41 -6 -2 1 -12 6 5 12 5 9 12 8 7 3 9 0 4 8 3 5 2 5 4 6 2 4 -5 -2 -16 -8 -0 -1 -1 1 2 1
1 1 4 0 -1 0 4 14 27 12 15 -5 -12 -5 4 4 11 6 -0 -5 -16 4 3 5 -1 -0 1 7 10 6 4 0 -1 3 -6 -1 7 -45 3 2 1 1 -0 2 2
-2 0 2 4 2 3 3 18 10 -5 -6 4 1 13 -5 6 9 2 10 6 4 7 8 -3 7 4 -1 -2 -21 -6 -4 -11 -6 -3 -2 3 -5 -26 -7 -6 0 1 0 -2 -1
-2 0 1 1 1 0 11 26 -4 -2 3 1 9 6 16 7 -1 -1 1 -2 6 -10 -5 -4 2 2 0 3 3 -6 3 7 -5 0 -1 -2 -3 -12 -4 -4 -0 1 0 0 1
-4 -3 3 -2 1 2 12 9 -4 -3 -12 5 6 9 2 8 6 6 -1 -4 -6 -12 2 -0 2 -1 4 7 8 -2 3 -1 2 -3 -0 -1 -3 -14 1 2 -2 1 1 1 -1
-2 -5 -1 0 2 4 20 -2 -4 2 3 1 1 -6 6 9 8 -3 4 1 8 -1 16 8 7 2 10 -4 -3 -2 2 2 2 -0 -4 -1 -7 -3 -0 -2 2 4 1 1 1
-4 -4 -1 -1 -3 8 0 -1 3 -1 6 0 -5 -10 -1 5 8 4 -26 2 2 4 -9 -4 4 1 -8 1 3 3 -2 1 -3 -2 0 -1 -9 1 -1 1 -0 0 1 1 -1
-3 -1 0 -0 -2 -0 -3 -1 -4 -0 -1 -2 -0 -7 4 4 4 1 3 6 2 -2 -14 -6 8 -1 5 4 -2 -5 0 1 3 3 -5 -3 -9 -1 -1 -2 1 -3 -0 1 -1
-0 -3 -5 1 4 3 6 -3 -2 -2 -3 3 -7 8 14 5 2 -0 -2 4 -1 -1 3 11 5 -11 -20 -25 -6 -7 -3 4 7 3 -3 -11 -7 -1 1 -2 1 0 -4 3 1
0 -2 1 -3 0 -0 3 -1 2 -3 2 -6 -2 1 -4 -2 1 7 -1 1 2 6 -7 10 -4 0 4 3 4 -3 -7 -5 -14 1 -7 -14 -13 -1 3 3 2 1 -1 -2 0
-1 0 -0 -4 -2 -2 5 -4 -5 -1 4 -1 -6 5 0 -5 1 -1 4 3 3 -1 10 13 -1 -3 -1 3 4 4 7 9 23 3 11 -0 -11 3 -2 -2 -5 1 -1 -0 2
-1 1 3 2 3 2 13 14 8 5 -1 -2 -1 2 4 4 3 2 2 5 6 -3 -0 10 0 0 -0 1 4 1 -21 -3 6 2 5 -21 -2 1 1 2 -1 -3 -3 2 4
Height
3079 3077 3075 3073 3072 3069 3068 3065 3064 3063 3062 3062 3061 3060 3059 3060 3060 3060 3059 3060 3059 3060 3063 3066 3067 3069 3071 3073 3076 3078 3080 3079 3083 3085 3088 3091 3094 3096 3098 3100 3103 3106 3108 3110 3111
3074 3072 3070 3068 3067 3065 3063 3062 3060 3058 3057 3057 3056 3056 3055 3055 3056 3055 3056 3055 3055 3056 3059 3062 3063 3065 3067 3069 3071 3073 3074 3077 3080 3082 3084 3087 3091 3093 3095 3097 3100 3103 3106 3107 3109
3068 3066 3064 3063 3061 3060 3058 3056 3055 3053 3052 3051 3051 3049 3050 3050 3050 3050 3051 3050 3051 3052 3054 3057 3059 3061 3063 3065 3067 3068 3070 3074 3075 3079 3081 3083 3086 3088 3090 3093 3097 3102 3104 3105 3106
3062 3060 3057 3055 3054 3053 3051 3050 3049 3047 3046 3045 3045 3044 3044 3045 3049 3044 3046 3046 3046 3048 3050 3052 3054 3056 3058 3060 3062 3064 3066 3069 3072 3075 3076 3078 3081 3084 3086 3090 3093 3097 3099 3101 3102
3055 3053 3051 3048 3046 3044 3043 3042 3041 3041 3040 3040 3038 3037 3038 3040 3042 3041 3041 3043 3044 3044 3045 3047 3050 3052 3054 3056 3058 3060 3063 3066 3069 3071 3073 3074 3077 3079 3081 3085 3088 3091 3094 3096 3098
3046 3045 3042 3040 3038 3036 3034 3034 3033 3032 3032 3032 3031 3030 3031 3034 3035 3036 3037 3038 3040 3041 3042 3043 3045 3049 3050 3052 3054 3057 3060 3062 3064 3067 3068 3070 3072 3074 3077 3079 3082 3086 3089 3091 3094
3037 3036 3033 3031 3028 3027 3025 3024 3024 3024 3024 3024 3024 3022 3022 3029 3029 3031 3032 3034 3034 3037 3038 3039 3040 3044 3046 3048 3050 3053 3056 3057 3058 3062 3064 3065 3065 3064 3072 3075 3077 3080 3083 3086 3088
3027 3024 3020 3020 3019 3017 3016 3014 3013 3015 3015 3016 3015 3014 3010 3021 3020 3025 3026 3027 3030 3031 3034 3035 3036 3039 3042 3044 3046 3049 3052 3053 3053 3055 3059 3060 3055 3061 3065 3066 3070 3074 3077 3080 3083
3015 3011 3010 3008 3007 3007 3005 3004 3004 3004 3006 3006 3007 3007 3006 3012 3013 3017 3019 3021 3023 3025 3028 3030 3032 3035 3038 3040 3043 3044 3044 3046 3049 3051 3054 3054 3050 3056 3059 3060 3063 3067 3070 3073 3076
3001 2998 2996 2996 2994 2993 2992 2992 2993 2993 2996 2998 2999 3003 3003 3006 3005 3006 3011 3013 3016 3019 3022 3024 3026 3028 3031 3035 3034 3036 3039 3041 3044 3048 3049 3048 3046 3051 3053 3055 3058 3060 3063 3065 3068
2988 2984 2983 2983 2982 2982 2982 2981 2985 2984 2983 2985 2988 2992 2995 2999 3000 3002 3005 3006 3009 3012 3014 3018 3018 3015 3022 3028 3032 3034 3036 3039 3042 3044 3045 3043 3042 3047 3048 3049 3051 3053 3055 3058 3063
2978 2976 2976 2973 2972 2971 2970 2972 2976 2975 2972 2974 2978 2980 2986 2990 2992 2994 2998 3000 3003 3005 3009 3012 3007 3016 3021 3025 3029 3032 3032 3036 3038 3040 3041 3039 3035 3038 3039 3039 3046 3048 3050 3053 3056
2970 2968 2968 2965 2961 2963 2962 2965 2965 2969 2963 2962 2966 2968 2978 2985 2984 2988 2992 2994 2998 3001 3003 3005 3008 3011 3014 3017 3023 3026 3029 3033 3037 3038 3037 3035 3027 3030 3032 3033 3038 3040 3044 3047 3051
2961 2959 2959 2956 2953 2953 2954 2956 2959 2962 2955 2951 2954 2955 2965 2972 2974 2982 2985 2992 2993 2996 3001 3002 3006 3006 3006 3011 3019 3021 3025 3030 3034 3038 3037 3036 3027 3021 3023 3026 3030 3034 3037 3041 3044
2953 2951 2949 2946 2944 2946 2949 2949 2949 2952 2947 2944 2944 2950 2955 2959 2966 2969 2978 2982 2985 2990 2996 2995 2999 3000 3000 3005 3012 3016 3021 3027 3031 3034 3033 3032 3035 3013 3018 3018 3022 3026 3029 3034 3039
2945 2942 2940 2940 2939 2941 2941 2942 2943 2943 2934 2938 2939 2942 2946 2949 2955 2963 2969 2976 2982 2987 2988 2992 2995 2995 2996 3004 3008 3014 3019 3024 3028 3032 3029 3025 3031 3006 3011 3012 3017 3019 3023 3027 3031
2937 2935 2933 2933 2934 2935 2935 2937 2937 2929 2930 2934 2935 2937 2940 2943 2948 2954 2959 2963 2970 2979 2981 2986 2989 2991 2994 2998 3004 3009 3014 3022 3030 3030 3021 3019 3022 3003 3007 3008 3010 3013 3017 3021 3025
2930 2929 2929 2928 2928 2929 2930 2932 2929 2926 2929 2930 2932 2936 2937 2941 2945 2948 2955 2960 2966 2970 2973 2977 2984 2984 2987 2990 2992 3002 3006 3004 3013 3019 3013 3015 3008 2997 3000 3004 3006 3008 3011 3015 3018
2925 2925 2923 2924 2922 2923 2926 2920 2923 2923 2922 2928 2930 2933 2935 2937 2942 2947 2950 2952 2958 2963 2971 2972 2976 2977 2983 2987 2993 2996 2998 3001 3002 3009 3011 3003 2998 2996 2996 2998 3001 3004 3006 3010 3013
2922 2920 2920 2920 2919 2920 2921 2918 2918 2923 2925 2926 2928 2930 2931 2933 2936 2941 2947 2949 2953 2959 2964 2968 2971 2973 2978 2984 2988 2988 2994 2999 2999 3007 3007 2997 2995 2989 2990 2993 2996 2999 3003 3006 3009
2919 2917 2918 2916 2916 2917 2915 2915 2916 2919 2921 2924 2924 2927 2928 2931 2935 2937 2943 2945 2948 2952 2958 2961 2966 2970 2972 2974 2974 2982 2984 2988 2991 2993 2994 2996 2988 2987 2988 2989 2994 2998 3001 3003 3006
2916 2915 2915 2915 2916 2914 2912 2913 2916 2916 2919 2919 2921 2924 2926 2929 2931 2934 2937 2942 2943 2947 2950 2954 2957 2962 2964 2966 2971 2975 2977 2982 2982 2987 2990 2992 2987 2985 2985 2987 2991 2995 2998 3000 3003
2913 2913 2913 2912 2911 2910 2911 2911 2912 2913 2914 2916 2917 2918 2924 2926 2930 2931 2933 2937 2940 2943 2945 2947 2950 2955 2962 2966 2966 2968 2970 2974 2977 2980 2980 2988 2984 2985 2985 2986 2989 2992 2995 2997 3000
2912 2912 2911 2910 2910 2909 2908 2908 2908 2910 2911 2912 2914 2916 2917 2922 2925 2927 2929 2933 2936 2939 2940 2941 2941 2942 2944 2946 2954 2957 2961 2966 2972 2975 2976 2976 2981 2984 2987 2989 2990 2991 2993 2996 2999
2911 2910 2910 2909 2908 2907 2907 2905 2905 2906 2907 2909 2911 2914 2917 2919 2921 2921 2927 2929 2931 2933 2934 2936 2935 2939 2942 2946 2948 2951 2954 2960 2962 2966 2970 2972 2976 2982 2983 2986 2988 2991 2992 2995 2998
2910 2909 2909 2907 2907 2905 2903 2902 2904 2905 2906 2906 2909 2912 2914 2916 2919 2920 2923 2924 2925 2926 2927 2926 2929 2934 2939 2942 2945 2946 2949 2952 2956 2959 2962 2966 2969 2977 2980 2982 2985 2988 2992 2995 2998
2909 2908 2907 2907 2905 2903 2902 2900 2901 2901 2902 2904 2906 2908 2911 2913 2914 2916 2917 2918 2919 2920 2921 2921 2924 2930 2935 2940 2942 2943 2940 2942 2945 2949 2953 2955 2961 2972 2976 2978 2982 2985 2990 2994 2998